CZ-6A DEB, 55551

Orbit data source: Space-Track

CZ-6A DEB, 55551 is space debris in SSO originally from a launch on Fri, 11 Nov 2022 UTC launched from the Taiyaun Space Center, China (TSC). Debris objects in space refer to the collection of defunct objects orbiting the Earth. Examples of debris include non-operational satellites, rocket bodies, and fragments generated from explosions, collisions, or faulty payload assembly.

Loading next visibility...
Identifier
55551, 2022-151YZ
Orbit
SSO
Country
Flag of CNCN / PRC
Related business
Manufacturer
SAST
Mission
Spacecraft
Bus & Motor
Unknown
Mass
Unknown
Launch date (UTC)
2022-11-11 (4 years ago)
Launch vehicle
Unknown
Launch site
Taiyaun Space Center, China (TSC)
Object type
Payload
Rocket body
Debris
Shape & HBR
Unknown shape, 0.1 m
Radar Cross Section
Small (<0.1 m²)

Expand to show TLE details & history
Last TLE update: 2 days ago

TLE from 2 days ago
0 CZ-6A DEB
1 55551U 22151YZ  26171.41773804  .00002256  00000-0  54168-3 0  9995
2 55551  98.6074 219.2512 0103386 324.1755  35.2534 14.51261851183432
Epoch: 2026-06-20T10:01Z
TLE epoch observation values (Epoch: 2026-06-20T10:01:32.566Z)
Latitude
-0.00006°
Longitude
160.23286°
Altitude
664.795 km
Speed
7.556 km/s
True Right ascension
14h 37m 00s
True Declination
0° 00' 00"
Sunlit
Object was in full shadow at epoch
Visualization orbit readout
Latitude
Unknown
Longitude
Unknown
Altitude
Unknown
Speed
Unknown
Apparent Right ascension
Unknown
Apparent Declination
Unknown
Sunlit
N/A
Visualization observer readout
Local Sidereal Time
21:31:03
Azimuth
Unknown
Elevation
Unknown
Doppler factor
Unknown
Orbital elements
Apogee altitude
792.012 km
Perigee altitude
645.271 km
Semi-major axis
7,096.779 km
Eccentricity
0.01034
Inclination
98.6074°
RAAN
219.2512°
Arg. of periapsis
324.1755°
True anomaly
35.94448°
Mean anomaly
35.2534°
Eccentric anomaly
35.59821°
Mean motion
3.63037 °/min
Orbital period
99.16 mins
BSTAR
0.00054168
Loading maneuver chart data...
Computing Atmospheric mass density...
Loading historical data...
Loading historical data...
Loading historical data...
Loading historical data...
Loading historical data...
Loading historical data...
Loading historical data...

Documentation

Showing up to 5 results
|